This demonstration page uses our WeatherBlox Daily Observations layout. Learn more.

Left ArrowRight Arrow

44.89941, -97.11507

Hourly Observations for October 11, 2021

Temp ( °F °C ) Dew Point ( °F °C ) Humidity (%) Winds ( mph kmh ) Pressure ( in mb ) Visibility ( mi km ) Precip ( " mm )
12:53 am 00:53 Clear 46 7.8 43 6.1 89 89 WSW 7 11 29.66 1004 10 16 N/A
1:53 am 01:53 Clear 48 8.9 44 6.7 86 86 SSW 8 13 29.66 1004 10 16 N/A
2:53 am 02:53 Clear 45 7.2 43 6.1 93 93 N N/A 29.67 1005 10 16 N/A
3:53 am 03:53 Clear 44 6.7 42 5.6 93 93 SSW 5 7 29.70 1006 10 16 N/A
4:53 am 04:53 Clear 42 5.6 41 5 96 96 S 3 6 29.70 1006 10 16 N/A
5:53 am 05:53 Clear 41 5 40 4.4 96 96 N N/A 29.71 1006 10 16 N/A
6:53 am 06:53 Clear 41 5 40 4.4 96 96 SSE 5 7 29.71 1006 10 16 N/A
7:53 am 07:53 Sunny 40 4.4 39 3.9 97 97 SSW 3 6 29.73 1007 8 13 N/A
8:53 am 08:53 Sunny 47 8.3 44 6.7 90 90 NW 3 6 29.73 1007 9 14 N/A
9:53 am 09:53 Sunny 53 11.7 45 7.2 74 74 NW 7 11 29.73 1007 10 16 N/A
10:53 am 10:53 Sunny 57 13.9 45 7.2 64 64 NNW 8 13 29.73 1007 10 16 N/A
11:53 am 11:53 Sunny 60 15.6 46 7.8 60 60 NW 10 17 29.74 1007 10 16 N/A
12:53 pm 12:53 Sunny 65 18.3 45 7.2 49 49 NW 10 17 29.72 1007 10 16 N/A
1:53 pm 13:53 Sunny 66 18.9 46 7.8 49 49 N 12 19 29.71 1006 10 16 N/A
2:53 pm 14:53 Sunny 69 20.6 43 6.1 39 39 N 12 19 29.72 1006 10 16 N/A
3:53 pm 15:53 Sunny 68 20 43 6.1 40 40 NNE 14 22 29.74 1007 10 16 N/A
4:53 pm 16:53 Sunny 67 19.4 45 7.2 45 45 N 10 17 29.77 1008 10 16 N/A
5:53 pm 17:53 Sunny 63 17.2 44 6.7 50 50 N 12 19 29.80 1009 10 16 N/A
6:53 pm 18:53 Clear 55 12.8 44 6.7 67 67 N 9 15 29.85 1011 10 16 N/A
7:53 pm 19:53 Clear 50 10 45 7.2 83 83 N 9 15 29.87 1011 10 16 N/A
8:53 pm 20:53 Clear 50 10 45 7.2 83 83 N 10 17 29.88 1012 10 16 N/A
9:53 pm 21:53 Clear 46 7.8 43 6.1 89 89 N 7 11 29.90 1013 10 16 N/A
10:53 pm 22:53 Clear 43 6.1 41 5 93 93 N 8 13 29.91 1013 10 16 N/A
11:53 pm 23:53 Clear 44 6.7 41 5 89 89 NNW 7 11 29.92 1013 10 16 N/A

Powered by AerisWeather